Location: Newark
(58.9986°N, 38.5006°E)
Time: 14:42:44
(UTC+00:00)

ISS - Pass Details

Date: 06 March 2021
Orbit: 418 x 422 km, 51.6° (Epoch: 13 April)

Event Time Altitude Azimuth Distance (km) Brightness Sun altitude
Exits shadow 03:09:07 10° 242° (WSW) 1,531 -1.5 -8.4°
Reaches altitude 10° 03:09:14 10° 240° (WSW) 1,501 -1.5 -8.4°
Maximum altitude 03:11:17 15° 203° (SSW) 1,216 -1.7 -8.2°
Drops below altitude 10° 03:13:20 10° 165° (SSE) 1,498 -0.8 -7.9°
Sets 03:16:02 0° 142° (SE) 2,359 0.6 -7.5°
